MUOS-1

Last updated on Mon Jul 07 2025 00:02:44 GMT+0000 (Coordinated Universal Time)

1 38093U 12009A 25187.54431122 -.00000114 00000+0 00000+0 0 9995 2 38093 4.7766 46.9011 0057095 3.5268 330.3128 1.00271750 48977
UTC large
Height (km)
Speed (km/s)
/
Latitude / Longitude
Inclination (degrees)
Orbital Period (minutes)
Azimuth
Elevation
Range (km)
Doppler Factor

Next 0 passes for location: London (51.5072 / 0.1276)

Sorry there are no passes over London.